Track NAVSTAR 34 (USA 94) now! NAVSTAR 34 (USA 94) is classified as:
1 22779U 93054A 23155.29144966 .00000011 00000-0 00000-0 0 9997 2 22779 53.7639 257.9879 0050754 236.9784 124.0811 1.89129520215056